| time (UTC) | temp F | wind direction | speed MPH | gust MPH | rain 1hr in | rain 24hr in | rain mn in | humidity % | barometer mb |
| 20260906233226 | 94 | 193 | 1.0 | 5.0 | 0.00 | 0.00 | 0.00 | 20 | 1022.3 |
| 20260906232721 | 95 | 178 | 2.0 | 5.0 | 0.00 | 0.00 | 0.00 | 20 | 1022.2 |
| 20260906232216 | 95 | 241 | 3.0 | 6.0 | 0.00 | 0.00 | 0.00 | 20 | 1022.0 |
| 20260906231711 | 95 | 151 | 5.0 | 10.0 | 0.00 | 0.00 | 0.00 | 20 | 1022.3 |
| 20260906231206 | 95 | 177 | 1.0 | 3.0 | 0.00 | 0.00 | 0.00 | 21 | 1022.3 |
| 20260906230705 | 95 | 151 | 1.0 | 2.0 | 0.00 | 0.00 | 0.00 | 20 | 1022.3 |
| 20260906230159 | 95 | 166 | 3.0 | 8.0 | 0.00 | 0.00 | 0.00 | 20 | 1022.0 |
| 20260906225653 | 94 | 227 | 3.0 | 6.0 | 0.00 | 0.00 | 0.00 | 19 | 1022.2 |
| 20260906225149 | 96 | 277 | 3.0 | 10.0 | 0.00 | 0.00 | 0.00 | 19 | 1022.3 |
| 20260906224644 | 95 | 195 | 2.0 | 3.0 | 0.00 | 0.00 | 0.00 | 19 | 1022.2 |
| 20260906224141 | 95 | 212 | 2.0 | 6.0 | 0.00 | 0.00 | 0.00 | 19 | 1022.3 |
| 20260906223638 | 94 | 188 | 4.0 | 6.0 | 0.00 | 0.00 | 0.00 | 20 | 1022.5 |
| 20260906223137 | 95 | 238 | 6.0 | 11.0 | 0.00 | 0.00 | 0.00 | 19 | 1022.3 |
| 20260906222635 | 95 | 163 | 3.0 | 13.0 | 0.00 | 0.00 | 0.00 | 20 | 1022.5 |
| 20260906222134 | 96 | 173 | 0.0 | 2.0 | 0.00 | 0.00 | 0.00 | 19 | 1022.5 |
| 20260906221632 | 96 | 190 | 0.0 | 2.0 | 0.00 | 0.00 | 0.00 | 18 | 1022.6 |
| 20260906221127 | 95 | 233 | 4.0 | 8.0 | 0.00 | 0.00 | 0.00 | 19 | 1022.5 |
| 20260906220622 | 94 | 210 | 4.0 | 13.0 | 0.00 | 0.00 | 0.00 | 19 | 1022.8 |
| 20260906220117 | 94 | 191 | 6.0 | 10.0 | 0.00 | 0.00 | 0.00 | 20 | 1022.8 |
| 20260906215616 | 96 | 183 | 6.0 | 11.0 | 0.00 | 0.00 | 0.00 | 19 | 1022.7 |
| 20260906215115 | 95 | 265 | 8.0 | 11.0 | 0.00 | 0.00 | 0.00 | 19 | 1022.9 |
| 20260906214613 | 95 | 173 | 3.0 | 8.0 | 0.00 | 0.00 | 0.00 | 19 | 1023.0 |
| 20260906214109 | 96 | 160 | 2.0 | 5.0 | 0.00 | 0.00 | 0.00 | 18 | 1022.9 |
| 20260906213608 | 97 | 216 | 1.0 | 5.0 | 0.00 | 0.00 | 0.00 | 18 | 1023.3 |
| 20260906213103 | 95 | 197 | 2.0 | 5.0 | 0.00 | 0.00 | 0.00 | 18 | 1023.5 |
| 20260906212600 | 96 | 223 | 2.0 | 3.0 | 0.00 | 0.00 | 0.00 | 17 | 1023.4 |
| 20260906212056 | 95 | 159 | 2.0 | 3.0 | 0.00 | 0.00 | 0.00 | 19 | 1023.4 |
| 20260906211555 | 94 | 238 | 6.0 | 11.0 | 0.00 | 0.00 | 0.00 | 19 | 1023.6 |
| 20260906211051 | 94 | 227 | 2.0 | 10.0 | 0.00 | 0.00 | 0.00 | 19 | 1023.8 |
| 20260906210546 | 95 | 313 | 2.0 | 8.0 | 0.00 | 0.00 | 0.00 | 18 | 1023.9 |
| 20260906210041 | 94 | 187 | 1.0 | 8.0 | 0.00 | 0.00 | 0.00 | 18 | 1023.6 |
| 20260906205537 | 95 | 287 | 6.0 | 11.0 | 0.00 | 0.00 | 0.00 | 18 | 1023.9 |
| 20260906205033 | 95 | 101 | 3.0 | 5.0 | 0.00 | 0.00 | 0.00 | 18 | 1024.1 |
| 20260906204527 | 94 | 196 | 1.0 | 6.0 | 0.00 | 0.00 | 0.00 | 19 | 1024.0 |
| 20260906204026 | 93 | 183 | 1.0 | 2.0 | 0.00 | 0.00 | 0.00 | 19 | 1024.2 |
| 20260906203526 | 94 | 207 | 5.0 | 10.0 | 0.00 | 0.00 | 0.00 | 19 | 1024.2 |
| 20260906203021 | 93 | 225 | 3.0 | 6.0 | 0.00 | 0.00 | 0.00 | 18 | 1024.2 |
| 20260906202513 | 94 | 229 | 2.0 | 3.0 | 0.00 | 0.00 | 0.00 | 18 | 1024.3 |
| 20260906202007 | 93 | 208 | 3.0 | 3.0 | 0.00 | 0.00 | 0.00 | 18 | 1024.5 |
| 20260906201502 | 93 | 199 | 1.0 | 8.0 | 0.00 | 0.00 | 0.00 | 19 | 1024.6 |
| 20260906201002 | 92 | 280 | 5.0 | 13.0 | 0.00 | 0.00 | 0.00 | 19 | 1024.7 |
| 20260906200458 | 92 | 206 | 7.0 | 8.0 | 0.00 | 0.00 | 0.00 | 18 | 1024.6 |
| 20260906195958 | 93 | 304 | 6.0 | 13.0 | 0.00 | 0.00 | 0.00 | 19 | 1024.5 |
| 20260906195454 | 94 | 191 | 4.0 | 6.0 | 0.00 | 0.00 | 0.00 | 18 | 1024.6 |
| 20260906194949 | 94 | 233 | 4.0 | 5.0 | 0.00 | 0.00 | 0.00 | 18 | 1024.6 |
| 20260906194445 | 94 | 283 | 7.0 | 10.0 | 0.00 | 0.00 | 0.00 | 17 | 1024.8 |
| 20260906193940 | 93 | 121 | 3.0 | 6.0 | 0.00 | 0.00 | 0.00 | 19 | 1024.9 |
| 20260906193436 | 93 | 199 | 5.0 | 6.0 | 0.00 | 0.00 | 0.00 | 18 | 1025.1 |
| 20260906192931 | 92 | 181 | 1.0 | 6.0 | 0.00 | 0.00 | 0.00 | 18 | 1024.9 |
| 20260906192426 | 91 | 171 | 3.0 | 6.0 | 0.00 | 0.00 | 0.00 | 19 | 1025.2 |
| 20260906191925 | 91 | 270 | 3.0 | 5.0 | 0.00 | 0.00 | 0.00 | 20 | 1025.2 |
| 20260906191420 | 94 | 220 | 7.0 | 10.0 | 0.00 | 0.00 | 0.00 | 19 | 1025.1 |
| 20260906190914 | 93 | 171 | 1.0 | 3.0 | 0.00 | 0.00 | 0.00 | 20 | 1025.4 |
| 20260906190413 | 93 | 141 | 0.0 | 6.0 | 0.00 | 0.00 | 0.00 | 20 | 1025.4 |
| 20260906185908 | 92 | 43 | 3.0 | 6.0 | 0.00 | 0.00 | 0.00 | 20 | 1025.3 |
| 20260906185407 | 92 | 203 | 3.0 | 8.0 | 0.00 | 0.00 | 0.00 | 21 | 1025.6 |
| 20260906184906 | 91 | 187 | 0.0 | 2.0 | 0.00 | 0.00 | 0.00 | 21 | 1025.6 |
| 20260906184401 | 92 | 185 | 1.0 | 3.0 | 0.00 | 0.00 | 0.00 | 20 | 1025.6 |
| 20260906183857 | 93 | 310 | 4.0 | 6.0 | 0.00 | 0.00 | 0.00 | 20 | 1025.8 |
| 20260906183353 | 91 | 205 | 2.0 | 3.0 | 0.00 | 0.00 | 0.00 | 21 | 1025.9 |
| 20260906182848 | 90 | 41 | 5.0 | 10.0 | 0.00 | 0.00 | 0.00 | 22 | 1025.8 |
| 20260906182343 | 90 | 248 | 4.0 | 8.0 | 0.00 | 0.00 | 0.00 | 22 | 1026.1 |
| 20260906181844 | 90 | 138 | 5.0 | 6.0 | 0.00 | 0.00 | 0.00 | 23 | 1026.2 |
| 20260906181340 | 89 | 177 | 2.0 | 5.0 | 0.00 | 0.00 | 0.00 | 23 | 1026.3 |
| 20260906180835 | 90 | 238 | 3.0 | 5.0 | 0.00 | 0.00 | 0.00 | 23 | 1026.3 |
| 20260906180330 | 89 | 271 | 4.0 | 6.0 | 0.00 | 0.00 | 0.00 | 24 | 1026.5 |
| 20260906175827 | 88 | 179 | 0.0 | 2.0 | 0.00 | 0.00 | 0.00 | 24 | 1026.3 |
| 20260906175323 | 89 | 113 | 2.0 | 2.0 | 0.00 | 0.00 | 0.00 | 23 | 1026.5 |
| 20260906174822 | 89 | 213 | 2.0 | 5.0 | 0.00 | 0.00 | 0.00 | 24 | 1026.5 |
| 20260906174321 | 88 | 37 | 3.0 | 3.0 | 0.00 | 0.00 | 0.00 | 24 | 1026.7 |
| 20260906173816 | 87 | 201 | 2.0 | 3.0 | 0.00 | 0.00 | 0.00 | 28 | 1026.6 |
| 20260906173312 | 88 | 217 | 4.0 | 5.0 | 0.00 | 0.00 | 0.00 | 28 | 1026.8 |
| 20260906172811 | 86 | 278 | 3.0 | 3.0 | 0.00 | 0.00 | 0.00 | 29 | 1026.9 |
| 20260906172308 | 86 | 179 | 0.0 | 2.0 | 0.00 | 0.00 | 0.00 | 29 | 1026.9 |
| 20260906171808 | 87 | 183 | 0.0 | 3.0 | 0.00 | 0.00 | 0.00 | 29 | 1026.9 |
| 20260906171302 | 87 | 164 | 1.0 | 5.0 | 0.00 | 0.00 | 0.00 | 29 | 1026.9 |
| 20260906170758 | 86 | 193 | 2.0 | 5.0 | 0.00 | 0.00 | 0.00 | 30 | 1027.1 |
| 20260906170254 | 85 | 241 | 2.0 | 3.0 | 0.00 | 0.00 | 0.00 | 30 | 1026.8 |
| 20260906165750 | 85 | 26 | 2.0 | 5.0 | 0.00 | 0.00 | 0.00 | 30 | 1026.9 |
| 20260906165244 | 85 | 237 | 1.0 | 5.0 | 0.00 | 0.00 | 0.00 | 30 | 1027.2 |
| 20260906164743 | 84 | 209 | 1.0 | 3.0 | 0.00 | 0.00 | 0.00 | 31 | 1027.3 |
| 20260906164238 | 82 | 185 | 0.0 | 3.0 | 0.00 | 0.00 | 0.00 | 31 | 1027.2 |
| 20260906163734 | 81 | 157 | 0.0 | 2.0 | 0.00 | 0.00 | 0.00 | 33 | 1027.3 |
| 20260906163230 | 81 | 173 | 0.0 | 2.0 | 0.00 | 0.00 | 0.00 | 33 | 1027.3 |
| 20260906162727 | 80 | 204 | 2.0 | 3.0 | 0.00 | 0.00 | 0.00 | 34 | 1027.3 |
| 20260906162222 | 80 | 141 | 2.0 | 3.0 | 0.00 | 0.00 | 0.00 | 33 | 1027.2 |
| 20260906161717 | 79 | 163 | 0.0 | 0.0 | 0.00 | 0.00 | 0.00 | 34 | 1027.1 |
| 20260906161216 | 79 | 46 | 0.0 | 2.0 | 0.00 | 0.00 | 0.00 | 34 | 1027.2 |
| 20260906160715 | 78 | 171 | 1.0 | 2.0 | 0.00 | 0.00 | 0.00 | 34 | 1027.2 |
| 20260906160214 | 78 | 190 | 1.0 | 5.0 | 0.00 | 0.00 | 0.00 | 35 | 1027.1 |
| 20260906155712 | 78 | 161 | 0.0 | 2.0 | 0.00 | 0.00 | 0.00 | 35 | 1027.2 |
| 20260906155207 | 77 | 150 | 0.0 | 2.0 | 0.00 | 0.00 | 0.00 | 36 | 1027.2 |
| 20260906154702 | 77 | 160 | 0.0 | 3.0 | 0.00 | 0.00 | 0.00 | 37 | 1027.3 |
| 20260906154157 | 76 | 211 | 3.0 | 5.0 | 0.00 | 0.00 | 0.00 | 37 | 1027.2 |
| 20260906153655 | 76 | 229 | 3.0 | 5.0 | 0.00 | 0.00 | 0.00 | 37 | 1027.2 |
| 20260906153150 | 76 | 188 | 3.0 | 5.0 | 0.00 | 0.00 | 0.00 | 37 | 1027.2 |
| 20260906152645 | 77 | 288 | 2.0 | 3.0 | 0.00 | 0.00 | 0.00 | 37 | 1027.3 |
| 20260906152144 | 76 | 359 | 3.0 | 3.0 | 0.00 | 0.00 | 0.00 | 36 | 1027.2 |
| 20260906151639 | 76 | 169 | 1.0 | 3.0 | 0.00 | 0.00 | 0.00 | 36 | 1027.2 |
| 20260906151135 | 76 | 136 | 1.0 | 2.0 | 0.00 | 0.00 | 0.00 | 35 | 1027.3 |
| 20260906150630 | 76 | 110 | 1.0 | 3.0 | 0.00 | 0.00 | 0.00 | 36 | 1026.9 |
| 20260906150126 | 75 | 88 | 1.0 | 3.0 | 0.00 | 0.00 | 0.00 | 36 | 1027.1 |
| 20260906145624 | 74 | 181 | 2.0 | 6.0 | 0.00 | 0.00 | 0.00 | 37 | 1027.1 |
| 20260906145119 | 74 | 23 | 3.0 | 3.0 | 0.00 | 0.00 | 0.00 | 37 | 1027.1 |
| 20260906144614 | 73 | 357 | 3.0 | 6.0 | 0.00 | 0.00 | 0.00 | 39 | 1027.1 |
| 20260906144109 | 73 | 13 | 2.0 | 3.0 | 0.00 | 0.00 | 0.00 | 39 | 1027.1 |
| 20260906143604 | 73 | 189 | 1.0 | 3.0 | 0.00 | 0.00 | 0.00 | 40 | 1026.9 |
| 20260906143101 | 73 | 89 | 1.0 | 3.0 | 0.00 | 0.00 | 0.00 | 39 | 1027.1 |
| 20260906142600 | 74 | 349 | 4.0 | 5.0 | 0.00 | 0.00 | 0.00 | 39 | 1026.9 |
| 20260906142055 | 73 | 39 | 1.0 | 2.0 | 0.00 | 0.00 | 0.00 | 40 | 1026.9 |
| 20260906141554 | 73 | 164 | 2.0 | 3.0 | 0.00 | 0.00 | 0.00 | 39 | 1026.9 |
| 20260906141050 | 72 | 141 | 1.0 | 2.0 | 0.00 | 0.00 | 0.00 | 40 | 1026.9 |
| 20260906140548 | 71 | 215 | 1.0 | 3.0 | 0.00 | 0.00 | 0.00 | 41 | 1026.7 |
| 20260906140043 | 72 | 170 | 0.0 | 0.0 | 0.00 | 0.00 | 0.00 | 40 | 1026.6 |
| 20260906135540 | 72 | 159 | 0.0 | 0.0 | 0.00 | 0.00 | 0.00 | 41 | 1026.8 |
| 20260906135037 | 71 | 140 | 1.0 | 2.0 | 0.00 | 0.00 | 0.00 | 42 | 1026.7 |
| 20260906134536 | 70 | 80 | 3.0 | 5.0 | 0.00 | 0.00 | 0.00 | 41 | 1026.5 |
| 20260906134031 | 70 | 148 | 0.0 | 3.0 | 0.00 | 0.00 | 0.00 | 42 | 1026.6 |
| 20260906133527 | 70 | 204 | 1.0 | 5.0 | 0.00 | 0.00 | 0.00 | 41 | 1026.6 |
| 20260906133023 | 70 | 158 | 0.0 | 2.0 | 0.00 | 0.00 | 0.00 | 42 | 1026.6 |
| 20260906132518 | 69 | 112 | 2.0 | 5.0 | 0.00 | 0.00 | 0.00 | 42 | 1026.3 |
| 20260906132013 | 69 | 347 | 4.0 | 8.0 | 0.00 | 0.00 | 0.00 | 42 | 1026.2 |
| 20260906131508 | 69 | 337 | 4.0 | 5.0 | 0.00 | 0.00 | 0.00 | 42 | 1026.6 |
| 20260906131004 | 69 | 160 | 0.0 | 3.0 | 0.00 | 0.00 | 0.00 | 41 | 1026.3 |
| 20260906130503 | 69 | 21 | 3.0 | 6.0 | 0.00 | 0.00 | 0.00 | 41 | 1026.2 |
| 20260906125958 | 69 | 18 | 3.0 | 6.0 | 0.00 | 0.00 | 0.00 | 41 | 1026.3 |
| 20260906125455 | 69 | 31 | 5.0 | 8.0 | 0.00 | 0.00 | 0.00 | 40 | 1026.2 |
| 20260906124955 | 69 | 34 | 1.0 | 5.0 | 0.00 | 0.00 | 0.00 | 41 | 1026.3 |
| 20260906124450 | 69 | 288 | 2.0 | 5.0 | 0.00 | 0.00 | 0.00 | 40 | 1026.2 |
| 20260906123945 | 69 | 82 | 2.0 | 2.0 | 0.00 | 0.00 | 0.00 | 41 | 1026.3 |
| 20260906123444 | 69 | 152 | 1.0 | 3.0 | 0.00 | 0.00 | 0.00 | 41 | 1026.1 |
| 20260906122939 | 69 | 163 | 0.0 | 8.0 | 0.00 | 0.00 | 0.00 | 40 | 1026.2 |
| 20260906122434 | 70 | 82 | 2.0 | 6.0 | 0.00 | 0.00 | 0.00 | 40 | 1026.0 |
| 20260906121931 | 70 | 334 | 3.0 | 6.0 | 0.00 | 0.00 | 0.00 | 40 | 1026.0 |
| 20260906121427 | 70 | 26 | 2.0 | 5.0 | 0.00 | 0.00 | 0.00 | 40 | 1025.8 |
| 20260906120923 | 70 | 337 | 1.0 | 3.0 | 0.00 | 0.00 | 0.00 | 40 | 1026.0 |
| 20260906120419 | 69 | 164 | 0.0 | 0.0 | 0.00 | 0.00 | 0.00 | 42 | 1026.0 |
| 20260906115914 | 69 | 133 | 0.0 | 0.0 | 0.00 | 0.00 | 0.00 | 44 | 1025.9 |
| 20260906115410 | 69 | 133 | 0.0 | 0.0 | 0.00 | 0.00 | 0.00 | 45 | 1025.9 |
| 20260906114909 | 69 | 133 | 0.0 | 2.0 | 0.00 | 0.00 | 0.00 | 45 | 1026.1 |
| 20260906114404 | 69 | 133 | 0.0 | 0.0 | 0.00 | 0.00 | 0.00 | 45 | 1026.1 |
| 20260906113900 | 69 | 133 | 0.0 | 2.0 | 0.00 | 0.00 | 0.00 | 45 | 1026.0 |
| 20260906113358 | 70 | 133 | 0.0 | 0.0 | 0.00 | 0.00 | 0.00 | 44 | 1026.0 |
| 20260906112854 | 70 | 133 | 0.0 | 0.0 | 0.00 | 0.00 | 0.00 | 42 | 1026.0 |
| 20260906112349 | 70 | 132 | 0.0 | 0.0 | 0.00 | 0.00 | 0.00 | 43 | 1026.1 |
| 20260906111849 | 70 | 132 | 0.0 | 0.0 | 0.00 | 0.00 | 0.00 | 43 | 1026.0 |
| 20260906111349 | 70 | 133 | 0.0 | 0.0 | 0.00 | 0.00 | 0.00 | 43 | 1026.0 |
| 20260906110839 | 70 | 133 | 0.0 | 0.0 | 0.00 | 0.00 | 0.00 | 41 | 1026.0 |
| 20260906110335 | 70 | 133 | 0.0 | 0.0 | 0.00 | 0.00 | 0.00 | 42 | 1025.9 |
| 20260906105833 | 71 | 133 | 0.0 | 0.0 | 0.00 | 0.00 | 0.00 | 42 | 1026.0 |
| 20260906105329 | 71 | 133 | 0.0 | 0.0 | 0.00 | 0.00 | 0.00 | 41 | 1026.2 |
| 20260906104825 | 71 | 133 | 0.0 | 0.0 | 0.00 | 0.00 | 0.00 | 40 | 1026.1 |
| 20260906104323 | 72 | 133 | 0.0 | 0.0 | 0.00 | 0.00 | 0.00 | 39 | 1026.1 |
| 20260906103821 | 72 | 133 | 0.0 | 0.0 | 0.00 | 0.00 | 0.00 | 38 | 1026.1 |
| 20260906103315 | 72 | 133 | 0.0 | 2.0 | 0.00 | 0.00 | 0.00 | 38 | 1026.0 |
| 20260906102811 | 73 | 133 | 0.0 | 0.0 | 0.00 | 0.00 | 0.00 | 38 | 1026.0 |
| 20260906102310 | 73 | 133 | 0.0 | 2.0 | 0.00 | 0.00 | 0.00 | 38 | 1026.0 |
| 20260906101805 | 73 | 133 | 0.0 | 2.0 | 0.00 | 0.00 | 0.00 | 37 | 1026.2 |
| 20260906101300 | 73 | 133 | 0.0 | 0.0 | 0.00 | 0.00 | 0.00 | 37 | 1026.1 |
| 20260906100756 | 74 | 128 | 0.0 | 0.0 | 0.00 | 0.00 | 0.00 | 36 | 1026.1 |
| 20260906100255 | 74 | 125 | 1.0 | 2.0 | 0.00 | 0.00 | 0.00 | 35 | 1026.0 |
| 20260906095750 | 74 | 3 | 1.0 | 5.0 | 0.00 | 0.00 | 0.00 | 35 | 1025.8 |
| 20260906095246 | 74 | 100 | 4.0 | 5.0 | 0.00 | 0.00 | 0.00 | 35 | 1025.9 |
| 20260906094745 | 73 | 142 | 2.0 | 2.0 | 0.00 | 0.00 | 0.00 | 37 | 1025.8 |
| 20260906094240 | 72 | 179 | 0.0 | 0.0 | 0.00 | 0.00 | 0.00 | 39 | 1025.8 |
| 20260906093736 | 73 | 177 | 0.0 | 0.0 | 0.00 | 0.00 | 0.00 | 39 | 1025.6 |
| 20260906093231 | 73 | 150 | 0.0 | 0.0 | 0.00 | 0.00 | 0.00 | 40 | 1025.6 |
| 20260906092726 | 73 | 149 | 0.0 | 0.0 | 0.00 | 0.00 | 0.00 | 39 | 1025.6 |
| 20260906092220 | 73 | 149 | 0.0 | 0.0 | 0.00 | 0.00 | 0.00 | 39 | 1025.5 |
| 20260906091717 | 73 | 151 | 0.0 | 0.0 | 0.00 | 0.00 | 0.00 | 39 | 1025.5 |
| 20260906091213 | 73 | 145 | 0.0 | 2.0 | 0.00 | 0.00 | 0.00 | 39 | 1025.4 |
| 20260906090709 | 73 | 145 | 0.0 | 2.0 | 0.00 | 0.00 | 0.00 | 39 | 1025.4 |
| 20260906090208 | 73 | 155 | 0.0 | 2.0 | 0.00 | 0.00 | 0.00 | 40 | 1025.3 |
| 20260906085707 | 73 | 141 | 1.0 | 2.0 | 0.00 | 0.00 | 0.00 | 39 | 1025.2 |
| 20260906085206 | 73 | 118 | 2.0 | 3.0 | 0.00 | 0.00 | 0.00 | 39 | 1025.3 |
| 20260906084701 | 73 | 160 | 0.0 | 0.0 | 0.00 | 0.00 | 0.00 | 39 | 1025.5 |
| 20260906084200 | 73 | 138 | 0.0 | 2.0 | 0.00 | 0.00 | 0.00 | 38 | 1025.5 |
| 20260906083655 | 73 | 155 | 1.0 | 2.0 | 0.00 | 0.00 | 0.00 | 38 | 1025.8 |
| 20260906083151 | 73 | 134 | 1.0 | 5.0 | 0.00 | 0.00 | 0.00 | 37 | 1025.6 |
| 20260906082646 | 73 | 121 | 1.0 | 5.0 | 0.00 | 0.00 | 0.00 | 38 | 1025.5 |
| 20260906082141 | 72 | 138 | 0.0 | 3.0 | 0.00 | 0.00 | 0.00 | 39 | 1025.6 |
| 20260906081637 | 72 | 133 | 2.0 | 3.0 | 0.00 | 0.00 | 0.00 | 39 | 1025.6 |
| 20260906081132 | 72 | 140 | 1.0 | 3.0 | 0.00 | 0.00 | 0.00 | 38 | 1025.5 |
| 20260906080629 | 72 | 151 | 0.0 | 5.0 | 0.00 | 0.00 | 0.00 | 39 | 1025.8 |
| 20260906080124 | 72 | 135 | 2.0 | 5.0 | 0.00 | 0.00 | 0.00 | 39 | 1025.9 |
| 20260906075618 | 72 | 113 | 1.0 | 3.0 | 0.00 | 0.00 | 0.00 | 39 | 1026.0 |
| 20260906075113 | 72 | 135 | 2.0 | 3.0 | 0.00 | 0.00 | 0.00 | 39 | 1026.0 |
| 20260906074608 | 72 | 110 | 3.0 | 5.0 | 0.00 | 0.00 | 0.00 | 38 | 1026.1 |
| 20260906074108 | 72 | 99 | 3.0 | 5.0 | 0.00 | 0.00 | 0.00 | 39 | 1025.9 |
| 20260906073608 | 72 | 105 | 2.0 | 2.0 | 0.00 | 0.00 | 0.00 | 39 | 1026.1 |
| 20260906073103 | 72 | 105 | 2.0 | 5.0 | 0.00 | 0.00 | 0.00 | 39 | 1026.1 |
| 20260906072558 | 72 | 100 | 2.0 | 3.0 | 0.00 | 0.00 | 0.00 | 39 | 1025.9 |
| 20260906072054 | 73 | 120 | 2.0 | 3.0 | 0.00 | 0.00 | 0.00 | 39 | 1025.9 |
| 20260906071551 | 73 | 114 | 2.0 | 3.0 | 0.00 | 0.00 | 0.00 | 40 | 1026.1 |
| 20260906071045 | 73 | 154 | 0.0 | 0.0 | 0.00 | 0.00 | 0.00 | 41 | 1026.1 |
| 20260906070542 | 73 | 127 | 2.0 | 5.0 | 0.00 | 0.00 | 0.00 | 42 | 1026.0 |
| 20260906070037 | 73 | 143 | 1.0 | 2.0 | 0.00 | 0.00 | 0.00 | 41 | 1026.0 |
| 20260906065537 | 73 | 150 | 0.0 | 0.0 | 0.00 | 0.00 | 0.00 | 42 | 1026.0 |
| 20260906065032 | 73 | 153 | 0.0 | 2.0 | 0.00 | 0.00 | 0.00 | 41 | 1026.2 |
| 20260906064528 | 74 | 140 | 0.0 | 2.0 | 0.00 | 0.00 | 0.00 | 40 | 1026.0 |
| 20260906064023 | 74 | 157 | 0.0 | 2.0 | 0.00 | 0.00 | 0.00 | 39 | 1026.0 |
| 20260906063519 | 74 | 143 | 0.0 | 2.0 | 0.00 | 0.00 | 0.00 | 39 | 1026.0 |
| 20260906063014 | 74 | 157 | 0.0 | 2.0 | 0.00 | 0.00 | 0.00 | 39 | 1026.1 |
| 20260906062509 | 75 | 139 | 1.0 | 3.0 | 0.00 | 0.00 | 0.00 | 38 | 1026.1 |
| 20260906062003 | 75 | 147 | 2.0 | 2.0 | 0.00 | 0.00 | 0.00 | 38 | 1026.0 |
| 20260906061454 | 75 | 106 | 1.0 | 2.0 | 0.00 | 0.00 | 0.00 | 38 | 1026.0 |
| 20260906060953 | 75 | 95 | 3.0 | 3.0 | 0.00 | 0.00 | 0.00 | 38 | 1026.0 |
| 20260906060450 | 75 | 148 | 0.0 | 0.0 | 0.00 | 0.00 | 0.00 | 39 | 1025.9 |
| 20260906055946 | 75 | 152 | 0.0 | 2.0 | 0.00 | 0.00 | 0.00 | 38 | 1025.9 |
| 20260906055437 | 75 | 154 | 0.0 | 0.0 | 0.00 | 0.00 | 0.00 | 38 | 1025.6 |
| 20260906054932 | 76 | 151 | 0.0 | 0.0 | 0.00 | 0.00 | 0.00 | 37 | 1025.8 |
| 20260906054427 | 76 | 149 | 0.0 | 0.0 | 0.00 | 0.00 | 0.00 | 36 | 1025.6 |
| 20260906053922 | 77 | 148 | 0.0 | 0.0 | 0.00 | 0.00 | 0.00 | 35 | 1025.4 |
| 20260906053418 | 77 | 150 | 0.0 | 2.0 | 0.00 | 0.00 | 0.00 | 35 | 1025.6 |
| 20260906052914 | 78 | 151 | 0.0 | 0.0 | 0.00 | 0.00 | 0.00 | 35 | 1025.8 |
| 20260906052410 | 78 | 149 | 0.0 | 0.0 | 0.00 | 0.00 | 0.00 | 33 | 1025.6 |
| 20260906051906 | 78 | 148 | 0.0 | 2.0 | 0.00 | 0.00 | 0.00 | 33 | 1025.6 |
| 20260906051406 | 78 | 145 | 0.0 | 2.0 | 0.00 | 0.00 | 0.00 | 32 | 1025.6 |
| 20260906050902 | 79 | 159 | 0.0 | 2.0 | 0.00 | 0.00 | 0.00 | 32 | 1025.5 |
| 20260906050356 | 79 | 168 | 0.0 | 2.0 | 0.00 | 0.00 | 0.00 | 31 | 1025.5 |
| 20260906045855 | 78 | 69 | 2.0 | 3.0 | 0.00 | 0.00 | 0.00 | 32 | 1025.6 |
| 20260906045349 | 78 | 76 | 1.0 | 3.0 | 0.00 | 0.00 | 0.00 | 32 | 1025.5 |
| 20260906044846 | 78 | 75 | 1.0 | 2.0 | 0.00 | 0.00 | 0.00 | 32 | 1025.5 |
| 20260906044345 | 78 | 85 | 0.0 | 0.0 | 0.00 | 0.00 | 0.00 | 33 | 1025.5 |
| 20260906043841 | 78 | 68 | 1.0 | 3.0 | 0.00 | 0.00 | 0.00 | 32 | 1025.4 |
| 20260906043337 | 78 | 117 | 0.0 | 0.0 | 0.00 | 0.00 | 0.00 | 33 | 1025.5 |
| 20260906042832 | 78 | 117 | 0.0 | 0.0 | 0.00 | 0.00 | 0.00 | 33 | 1025.6 |
| 20260906042331 | 78 | 113 | 0.0 | 0.0 | 0.00 | 0.00 | 0.00 | 34 | 1025.5 |
| 20260906041827 | 79 | 113 | 1.0 | 2.0 | 0.00 | 0.00 | 0.00 | 33 | 1025.4 |
| 20260906041323 | 79 | 108 | 0.0 | 3.0 | 0.00 | 0.00 | 0.00 | 32 | 1025.6 |
| 20260906040822 | 80 | 107 | 0.0 | 3.0 | 0.00 | 0.00 | 0.00 | 31 | 1025.5 |
| 20260906040317 | 79 | 128 | 0.0 | 0.0 | 0.00 | 0.00 | 0.00 | 32 | 1025.6 |
| 20260906035813 | 79 | 151 | 0.0 | 2.0 | 0.00 | 0.00 | 0.00 | 32 | 1025.6 |
| 20260906035308 | 79 | 58 | 0.0 | 2.0 | 0.00 | 0.00 | 0.00 | 31 | 1025.5 |
| 20260906034803 | 79 | 140 | 1.0 | 3.0 | 0.00 | 0.00 | 0.00 | 32 | 1025.8 |
| 20260906034303 | 79 | 153 | 0.0 | 2.0 | 0.00 | 0.00 | 0.00 | 33 | 1025.5 |
| 20260906033759 | 79 | 162 | 0.0 | 0.0 | 0.00 | 0.00 | 0.00 | 33 | 1025.6 |
| 20260906033258 | 80 | 153 | 0.0 | 3.0 | 0.00 | 0.00 | 0.00 | 33 | 1025.4 |
| 20260906032756 | 80 | 144 | 0.0 | 3.0 | 0.00 | 0.00 | 0.00 | 32 | 1025.6 |
| 20260906032255 | 80 | 139 | 0.0 | 2.0 | 0.00 | 0.00 | 0.00 | 32 | 1025.4 |
| 20260906031750 | 80 | 160 | 0.0 | 2.0 | 0.00 | 0.00 | 0.00 | 33 | 1025.1 |
| 20260906031247 | 80 | 154 | 0.0 | 2.0 | 0.00 | 0.00 | 0.00 | 34 | 1025.1 |
| 20260906030746 | 81 | 149 | 0.0 | 2.0 | 0.00 | 0.00 | 0.00 | 33 | 1024.9 |
| 20260906030242 | 82 | 153 | 0.0 | 5.0 | 0.00 | 0.00 | 0.00 | 31 | 1025.1 |
| 20260906025742 | 82 | 44 | 2.0 | 5.0 | 0.00 | 0.00 | 0.00 | 31 | 1024.8 |
| 20260906025241 | 80 | 108 | 1.0 | 2.0 | 0.00 | 0.00 | 0.00 | 32 | 1024.7 |
| 20260906024740 | 80 | 358 | 0.0 | 2.0 | 0.00 | 0.00 | 0.00 | 33 | 1024.7 |
| 20260906024239 | 80 | 140 | 0.0 | 0.0 | 0.00 | 0.00 | 0.00 | 34 | 1024.5 |
| 20260906023735 | 80 | 148 | 0.0 | 0.0 | 0.00 | 0.00 | 0.00 | 35 | 1024.6 |
| 20260906023230 | 81 | 149 | 0.0 | 0.0 | 0.00 | 0.00 | 0.00 | 35 | 1024.6 |
| 20260906022726 | 82 | 150 | 0.0 | 0.0 | 0.00 | 0.00 | 0.00 | 33 | 1024.5 |
| 20260906022221 | 82 | 178 | 0.0 | 0.0 | 0.00 | 0.00 | 0.00 | 33 | 1024.3 |
| 20260906021717 | 83 | 179 | 0.0 | 0.0 | 0.00 | 0.00 | 0.00 | 32 | 1024.2 |
| 20260906021215 | 83 | 180 | 0.0 | 0.0 | 0.00 | 0.00 | 0.00 | 31 | 1024.5 |
| 20260906020711 | 83 | 157 | 0.0 | 3.0 | 0.00 | 0.00 | 0.00 | 31 | 1024.3 |
| 20260906020205 | 84 | 174 | 0.0 | 0.0 | 0.00 | 0.00 | 0.00 | 31 | 1024.2 |
| 20260906015700 | 84 | 138 | 0.0 | 3.0 | 0.00 | 0.00 | 0.00 | 31 | 1024.2 |
| 20260906015158 | 84 | 157 | 0.0 | 0.0 | 0.00 | 0.00 | 0.00 | 30 | 1024.2 |
| 20260906014652 | 85 | 224 | 0.0 | 2.0 | 0.00 | 0.00 | 0.00 | 29 | 1024.2 |
| 20260906014148 | 85 | 277 | 3.0 | 5.0 | 0.00 | 0.00 | 0.00 | 29 | 1024.1 |
| 20260906013644 | 85 | 270 | 3.0 | 5.0 | 0.00 | 0.00 | 0.00 | 29 | 1024.1 |
| 20260906013139 | 86 | 246 | 1.0 | 5.0 | 0.00 | 0.00 | 0.00 | 29 | 1024.2 |
| 20260906012639 | 86 | 214 | 2.0 | 5.0 | 0.00 | 0.00 | 0.00 | 29 | 1024.1 |
| 20260906012134 | 86 | 211 | 1.0 | 5.0 | 0.00 | 0.00 | 0.00 | 29 | 1024.1 |
| 20260906011630 | 86 | 297 | 2.0 | 3.0 | 0.00 | 0.00 | 0.00 | 29 | 1024.2 |
| 20260906011124 | 87 | 181 | 0.0 | 2.0 | 0.00 | 0.00 | 0.00 | 29 | 1024.2 |
| 20260906010619 | 87 | 180 | 0.0 | 0.0 | 0.00 | 0.00 | 0.00 | 28 | 1024.2 |
| 20260906010116 | 87 | 192 | 1.0 | 3.0 | 0.00 | 0.00 | 0.00 | 28 | 1024.1 |
| 20260906005609 | 88 | 352 | 2.0 | 5.0 | 0.00 | 0.00 | 0.00 | 28 | 1024.1 |
| 20260906005108 | 88 | 229 | 5.0 | 10.0 | 0.00 | 0.00 | 0.00 | 28 | 1024.2 |
| 20260906004608 | 88 | 267 | 6.0 | 11.0 | 0.00 | 0.00 | 0.00 | 28 | 1024.2 |
| 20260906004103 | 89 | 292 | 5.0 | 8.0 | 0.00 | 0.00 | 0.00 | 27 | 1024.1 |
| 20260906003558 | 89 | 215 | 1.0 | 3.0 | 0.00 | 0.00 | 0.00 | 27 | 1024.1 |
| 20260906003054 | 89 | 184 | 0.0 | 5.0 | 0.00 | 0.00 | 0.00 | 27 | 1024.2 |
| 20260906002549 | 89 | 339 | 4.0 | 5.0 | 0.00 | 0.00 | 0.00 | 28 | 1024.2 |
| 20260906002043 | 90 | 190 | 3.0 | 5.0 | 0.00 | 0.00 | 0.00 | 27 | 1024.1 |
| 20260906001538 | 91 | 208 | 3.0 | 6.0 | 0.00 | 0.00 | 0.00 | 27 | 1024.2 |
| 20260906001032 | 91 | 309 | 4.0 | 6.0 | 0.00 | 0.00 | 0.00 | 26 | 1024.1 |
| 20260906000529 | 90 | 177 | 1.0 | 8.0 | 0.00 | 0.00 | 0.00 | 26 | 1024.0 |
| 20260906000024 | 91 | 236 | 4.0 | 10.0 | 0.00 | 0.00 | 0.00 | 26 | 1024.1 |
| 20260905235517 | 91 | 192 | 3.0 | 3.0 | 0.00 | 0.00 | 0.00 | 26 | 1024.1 |
| 20260905235013 | 92 | 170 | 3.0 | 6.0 | 0.00 | 0.00 | 0.00 | 25 | 1024.0 |
| 20260905234508 | 91 | 171 | 1.0 | 6.0 | 0.00 | 0.00 | 0.00 | 26 | 1024.0 |
| 20260905234003 | 90 | 163 | 2.0 | 6.0 | 0.00 | 0.00 | 0.00 | 27 | 1024.0 |